Location: Unspecified
(38.0749°N, 0.0000°E)
Time: 03:16:28
(UTC+00:00)

UNISAT 6 - Visible Passes

Search period start: 05 April 2026 00:00
Search period end: 15 April 2026 00:00
Orbit: 574 x 636 km, 97.8° (Epoch: 28 March)

Date Brightness Start Highest point End Pass type
(mag) Time Alt. Az. Time Alt. Az. Time Alt. Az.
5 Apr ? 02:44:18 28° NE 02:44:18 28° NE 02:46:53 10° N visible
5 Apr ? 04:21:08 13° WNW 04:21:08 13° WNW 04:21:49 10° NW visible
6 Apr ? 02:56:45 36° NNE 02:56:45 36° NNE 02:59:37 10° N visible
7 Apr ? 03:09:12 44° N 03:09:12 44° N 03:12:16 10° N visible
8 Apr ? 03:21:38 49° NNW 03:21:38 49° NNW 03:24:50 10° NNW visible
9 Apr ? 01:57:14 11° ENE 01:57:47 11° ENE 01:59:13 10° NE visible
9 Apr ? 03:34:04 45° NW 03:34:04 45° NW 03:37:18 10° NNW visible
10 Apr ? 02:09:40 15° ENE 02:10:09 16° ENE 02:12:44 10° NNE visible
10 Apr ? 03:46:30 37° WNW 03:46:30 37° WNW 03:49:42 10° NNW visible
11 Apr ? 02:22:05 21° ENE 02:22:32 21° ENE 02:25:48 10° NNE visible
11 Apr ? 03:58:56 28° WNW 03:58:56 28° WNW 04:01:58 10° NW visible
12 Apr ? 02:34:31 28° E 02:34:56 28° ENE 02:38:40 10° N visible
12 Apr ? 04:11:20 21° W 04:11:20 21° W 04:14:06 10° NW visible
13 Apr ? 02:46:56 38° E 02:47:21 39° ENE 02:51:24 10° N visible
13 Apr ? 04:23:45 16° W 04:23:45 16° W 04:26:02 10° NW visible
14 Apr ? 02:59:20 52° E 02:59:47 54° ENE 03:04:03 10° N visible
14 Apr ? 04:36:10 12° W 04:36:10 12° W 04:37:26 10° WNW visible
